CW4421 Weather Reports


Display with metric or nautical units.
time (UTC)temp
F
wind
direction
speed
MPH
gust
MPH
rain 1hr
in
rain 24hr
in
rain mn
in
humidity
%
barometer
mb
20260904193027 102 164 6.0 16.0 0.00 0.00 0.00 37 1006.3
20260904191533 102 165 10.0 19.0 0.00 0.00 0.00 34 1006.5
20260904190022 101 189 11.0 26.0 0.00 0.00 0.00 36 1006.6
20260904184520 100 180 10.0 20.0 0.00 0.00 0.00 39 1006.9
20260904183017 99 223 8.0 20.0 0.00 0.00 0.00 42 1007.0
20260904181514 99 167 10.0 20.0 0.00 0.00 0.00 44 1007.3
20260904180013 98 149 8.0 18.0 0.00 0.00 0.00 45 1007.5
20260904174514 97 169 12.0 16.0 0.00 0.00 0.00 45 1007.6
20260904173012 96 172 11.0 18.0 0.00 0.00 0.00 48 1007.9
20260904171507 95 191 11.0 18.0 0.00 0.00 0.00 50 1008.0
20260904170003 94 186 9.0 15.0 0.00 0.00 0.00 52 1008.1
20260904164601 93 179 7.0 15.0 0.00 0.00 0.00 54 1008.1
20260904163059 92 159 13.0 19.0 0.00 0.00 0.00 54 1008.0
20260904161602 91 173 11.0 19.0 0.00 0.00 0.00 56 1007.8
20260904160054 90 157 12.0 18.0 0.00 0.00 0.00 57 1007.8
20260904154551 89 169 13.0 20.0 0.00 0.00 0.00 59 1007.7
20260904153046 88 175 11.0 19.0 0.00 0.00 0.00 61 1007.7
20260904151543 87 187 11.0 20.0 0.00 0.00 0.00 64 1007.8
20260904150040 85 200 11.0 23.0 0.00 0.00 0.00 66 1007.9
20260904144537 84 196 12.0 18.0 0.00 0.00 0.00 68 1008.0
20260904143037 82 148 11.0 19.0 0.00 0.00 0.00 70 1008.0
20260904141535 81 173 11.0 16.0 0.00 0.00 0.00 72 1008.0
20260904140032 80 176 13.0 20.0 0.00 0.00 0.00 75 1007.9
20260904134543 78 177 12.0 18.0 0.00 0.00 0.00 78 1007.9
20260904133032 76 185 9.0 15.0 0.00 0.00 0.00 82 1007.8
20260904131528 75 158 5.0 10.0 0.00 0.00 0.00 84 1007.7
20260904130029 73 151 4.0 8.0 0.00 0.00 0.00 86 1007.7
20260904124528 73 172 4.0 9.0 0.00 0.00 0.00 86 1007.7
20260904123026 72 192 4.0 7.0 0.00 0.00 0.00 87 1007.6
20260904121526 72 162 4.0 6.0 0.00 0.00 0.00 86 1007.5
20260904120024 72 169 3.0 6.0 0.00 0.00 0.00 85 1007.3
20260904114523 72 150 3.0 6.0 0.00 0.00 0.00 85 1007.1
20260904113021 73 169 4.0 5.0 0.00 0.00 0.00 83 1007.1
20260904111518 74 161 3.0 6.0 0.00 0.00 0.00 82 1007.0
20260904110016 74 180 4.0 7.0 0.00 0.00 0.00 82 1007.0
20260904104514 74 183 5.0 8.0 0.00 0.00 0.00 81 1006.7
20260904103011 75 176 5.0 8.0 0.00 0.00 0.00 80 1006.9
20260904101509 75 180 6.0 10.0 0.00 0.00 0.00 79 1006.8
20260904100008 76 184 7.0 11.0 0.00 0.00 0.00 78 1006.7
20260904094505 76 166 7.0 12.0 0.00 0.00 0.00 77 1006.6
20260904093004 76 192 8.0 12.0 0.00 0.00 0.00 77 1006.5
20260904091502 77 198 9.0 14.0 0.00 0.00 0.00 76 1006.4
20260904090107 77 178 8.0 12.0 0.00 0.00 0.00 75 1006.4
20260904084600 77 198 7.0 11.0 0.00 0.00 0.00 74 1006.6
20260904083144 78 185 7.0 11.0 0.00 0.00 0.00 73 1006.6
20260904081557 78 194 9.0 13.0 0.00 0.00 0.00 72 1006.7
20260904080054 79 186 11.0 16.0 0.00 0.00 0.00 72 1006.7
20260904074551 79 184 8.0 14.0 0.00 0.00 0.00 71 1006.7
20260904073057 80 181 9.0 18.0 0.00 0.00 0.00 70 1006.8
20260904071611 80 178 8.0 15.0 0.00 0.00 0.00 69 1006.8
20260904070110 80 184 9.0 15.0 0.00 0.00 0.00 69 1006.8
20260904064545 80 186 8.0 12.0 0.00 0.00 0.00 69 1006.7
20260904063054 80 174 7.0 12.0 0.00 0.00 0.00 68 1006.6
20260904061541 80 175 8.0 12.0 0.00 0.00 0.00 67 1006.5
20260904060039 81 169 8.0 12.0 0.00 0.00 0.00 66 1006.4
20260904054546 81 182 9.0 14.0 0.00 0.00 0.00 66 1006.4
20260904053049 82 184 9.0 14.0 0.00 0.00 0.00 65 1006.2
20260904051539 82 167 9.0 15.0 0.00 0.00 0.00 64 1006.1
20260904050037 83 180 10.0 15.0 0.00 0.00 0.00 64 1006.0
20260904044532 83 177 11.0 16.0 0.00 0.00 0.00 63 1005.8
20260904043036 84 186 12.0 20.0 0.00 0.00 0.00 61 1005.7
20260904041529 84 177 11.0 20.0 0.00 0.00 0.00 60 1005.7
20260904040029 85 181 13.0 22.0 0.00 0.00 0.00 59 1005.8
20260904034529 85 176 13.0 23.0 0.00 0.00 0.00 58 1005.8
20260904033030 86 165 13.0 20.0 0.00 0.00 0.00 56 1005.7
20260904031535 87 175 12.0 19.0 0.00 0.00 0.00 54 1005.7
20260904030027 87 156 13.0 22.0 0.00 0.00 0.00 52 1005.4
20260904024527 88 208 9.0 16.0 0.00 0.00 0.00 50 1005.3
20260904023026 88 167 9.0 15.0 0.00 0.00 0.00 49 1004.7
20260904021528 89 194 7.0 12.0 0.00 0.00 0.00 48 1004.7
20260904020025 89 166 9.0 15.0 0.00 0.00 0.00 48 1004.6
20260904014524 90 168 8.0 15.0 0.00 0.00 0.00 47 1004.2
20260904013024 91 159 6.0 15.0 0.00 0.00 0.00 45 1004.0
20260904011523 92 143 6.0 12.0 0.00 0.00 0.00 43 1003.7
20260904010017 93 148 6.0 11.0 0.00 0.00 0.00 41 1003.5
20260904004606 94 169 5.0 14.0 0.00 0.00 0.00 39 1003.5
20260904003046 96 167 12.0 20.0 0.00 0.00 0.00 38 1003.2
20260904001550 97 165 13.0 25.0 0.00 0.00 0.00 37 1003.2
20260904000100 98 187 12.0 22.0 0.00 0.00 0.00 37 1003.1
20260903234545 98 175 16.0 23.0 0.00 0.00 0.00 36 1003.0
20260903233044 99 178 15.0 23.0 0.00 0.00 0.00 35 1003.0
20260903231545 101 178 14.0 22.0 0.00 0.00 0.00 34 1003.0
20260903230048 102 168 14.0 25.0 0.00 0.00 0.00 33 1003.0
20260903224543 102 161 9.0 24.0 0.00 0.00 0.00 33 1003.0
20260903223042 102 160 13.0 26.0 0.00 0.00 0.00 33 1002.9
20260903221542 102 162 12.0 25.0 0.00 0.00 0.00 33 1003.0
20260903220041 103 171 18.0 25.0 0.00 0.00 0.00 32 1003.1
20260903214553 104 210 12.0 24.0 0.00 0.00 0.00 31 1003.4
20260903213046 104 180 11.0 21.0 0.00 0.00 0.00 31 1003.3
20260903211539 104 184 18.0 25.0 0.00 0.00 0.00 30 1003.5
20260903210044 104 200 14.0 25.0 0.00 0.00 0.00 32 1003.5
20260903204536 103 194 14.0 25.0 0.00 0.00 0.00 33 1003.6
20260903203035 103 184 15.0 26.0 0.00 0.00 0.00 33 1003.9
20260903201537 103 196 16.0 27.0 0.00 0.00 0.00 32 1004.1
20260903200034 103 212 17.0 26.0 0.00 0.00 0.00 32 1004.0
20260903194532 103 186 14.0 29.0 0.00 0.00 0.00 34 1004.1